Theta_e
324 328 331 333 334 335 337 338 338 337 338 339 339 339 338 338 337 336 334 332 331 332 333 333 334 334 336 330 323 322 323 325 326 324 321 318 318 318 320 325 330 335 336 336 336 335 333 328 324 322 322 322 322 322 322 321 319 319 317 319 321 323 323 323 327 329 330 332 334 334 331 329 329 329 329 330 329 329 328 328 329 329 330 330 329
322 326 329 332 333 333 335 335 334 333 338 339 339 339 338 338 338 336 333 332 331 332 332 333 334 335 336 328 321 322 322 324 324 322 321 320 320 320 321 325 332 335 335 335 336 336 334 330 325 324 323 323 324 323 322 322 321 321 320 319 319 320 321 321 324 326 328 330 330 331 330 329 329 328 329 329 329 329 328 328 329 331 333 333 334
320 324 326 331 332 333 332 333 332 331 336 338 338 338 338 338 337 335 331 331 331 331 332 333 334 335 336 328 321 322 322 322 321 321 321 320 321 321 320 322 327 333 333 334 335 334 334 333 328 325 324 323 323 323 322 322 322 322 321 321 320 320 321 322 324 325 326 327 328 328 327 326 325 325 325 325 325 324 323 323 323 329 334 334 336
320 323 324 329 331 332 332 331 331 331 334 337 338 338 338 337 336 333 330 330 330 331 332 334 334 335 336 327 321 322 322 321 321 320 321 321 321 321 321 320 322 328 331 334 335 333 333 334 331 325 324 325 323 322 321 321 321 322 322 322 322 321 321 322 323 324 324 326 327 326 326 326 325 324 324 324 323 323 321 319 317 321 329 334 336
319 322 323 325 329 331 332 331 331 330 333 336 337 337 337 336 334 331 329 330 330 332 333 334 334 336 336 327 321 322 322 322 321 322 322 321 322 321 321 320 321 327 330 333 335 333 333 334 332 324 322 323 324 324 323 322 321 321 321 320 320 321 322 321 321 322 322 324 324 325 325 326 326 325 327 327 325 323 322 322 319 318 322 331 336
319 321 323 324 326 329 330 330 330 329 331 334 335 335 336 335 333 330 329 329 330 332 332 333 333 335 335 327 321 322 322 322 322 322 323 322 322 322 321 321 323 327 330 333 334 333 332 333 331 326 321 319 321 322 322 323 323 322 321 320 319 319 320 320 321 321 321 322 322 323 323 325 326 328 332 333 331 327 325 324 323 321 320 325 332
319 320 322 323 325 327 328 328 328 329 329 331 333 333 335 334 331 330 329 329 330 330 330 331 334 335 333 326 322 322 322 323 323 323 323 323 323 322 321 322 324 327 329 331 332 332 332 331 330 327 323 319 317 317 316 318 321 322 323 323 322 319 317 316 317 319 320 320 321 321 322 324 325 330 334 334 335 333 330 327 324 324 323 322 324
319 320 321 323 325 326 327 327 327 328 328 329 332 332 333 333 331 330 329 330 329 328 328 331 334 335 330 325 322 323 323 323 323 323 324 323 322 321 322 322 324 327 328 329 329 330 330 330 329 327 325 322 320 317 314 313 314 315 317 319 319 318 314 312 313 314 317 319 320 320 322 323 325 330 333 334 335 333 332 331 328 325 323 323 322
319 319 320 322 324 325 326 327 327 327 327 327 329 330 332 333 332 330 330 329 328 326 327 331 333 333 329 324 323 323 323 323 323 323 323 323 322 321 322 323 324 328 329 330 329 328 329 328 327 326 324 321 319 317 313 311 311 311 311 312 313 313 311 311 310 311 313 316 318 319 321 323 324 327 331 333 332 331 331 330 331 329 325 323 322
318 319 319 320 321 324 325 326 327 326 326 327 327 328 331 333 332 331 330 330 327 325 327 330 332 331 327 325 324 323 324 323 323 323 322 323 322 320 323 323 324 328 330 331 330 328 328 327 325 324 320 316 315 313 311 310 310 310 310 309 309 308 308 309 309 309 310 312 315 316 319 322 322 324 329 331 329 328 328 326 327 328 325 322 320
316 319 319 319 320 322 323 324 326 326 326 326 327 328 331 331 331 332 331 330 327 325 325 327 330 329 327 326 325 325 325 324 323 322 322 325 323 321 323 323 324 328 330 330 330 328 325 322 319 317 314 312 312 311 309 308 308 308 307 306 305 305 305 305 306 307 307 309 311 312 315 318 320 322 326 328 328 326 324 322 321 322 319 317 319
315 317 319 319 319 320 321 323 324 325 326 326 326 328 331 332 331 332 331 330 329 327 325 325 327 329 327 326 327 327 326 326 325 324 326 327 323 321 323 323 325 327 328 328 327 323 318 315 312 310 310 311 311 310 308 306 306 305 304 304 304 304 304 304 304 305 305 305 307 308 310 312 315 319 323 325 327 325 321 317 315 318 318 317 324
315 316 318 319 319 320 321 321 323 324 325 325 326 327 330 332 332 331 330 330 329 328 325 324 325 327 326 326 328 328 327 326 326 328 330 330 325 322 323 324 326 325 323 323 320 317 314 312 310 309 310 310 311 309 305 304 304 303 303 304 304 305 305 305 305 305 305 305 305 305 306 307 309 313 316 319 320 318 315 312 312 314 316 321 328
315 316 317 319 320 320 321 321 322 323 324 325 326 327 329 331 331 331 330 330 329 326 324 323 323 324 325 325 325 325 326 325 325 327 329 330 328 325 322 324 325 321 318 317 315 314 312 310 309 310 310 309 310 307 304 304 304 303 304 305 306 306 306 307 307 307 306 306 306 305 305 306 306 308 310 312 311 311 310 310 310 309 314 325 329
315 315 315 317 319 320 320 321 322 323 324 324 325 327 328 329 332 332 330 331 330 327 325 325 323 324 324 324 324 324 324 324 326 328 327 327 328 328 325 322 321 319 319 318 316 314 311 309 309 310 311 309 307 305 303 304 303 304 305 306 307 307 307 307 307 307 307 307 307 306 306 306 306 307 310 310 309 309 309 308 307 306 311 320 322
315 315 314 315 316 318 319 320 321 322 323 324 324 326 327 328 330 330 330 331 331 328 328 327 326 326 326 325 325 324 324 324 325 328 329 326 326 330 330 326 324 322 322 320 317 315 311 308 308 309 310 308 305 304 303 303 303 305 306 307 307 307 307 307 307 307 307 307 307 307 306 306 306 307 312 312 308 307 307 307 306 305 306 310 312
316 315 315 314 315 316 317 319 320 321 322 323 323 324 325 327 329 329 328 329 328 329 329 329 328 328 327 326 326 324 324 324 324 327 330 330 328 329 332 331 328 326 324 322 320 318 313 308 307 307 308 306 304 303 303 303 303 305 306 307 307 307 307 306 306 306 306 306 306 306 306 306 306 306 309 311 307 307 307 306 306 306 305 305 306
316 316 315 315 315 315 315 317 318 320 322 322 323 323 323 325 327 328 327 327 326 327 328 329 329 328 328 327 326 324 324 324 325 327 330 331 330 329 331 332 330 328 327 325 323 322 316 309 306 306 306 305 304 303 303 303 304 305 306 306 306 306 306 306 306 306 306 306 306 306 306 306 306 306 307 308 307 307 306 306 306 306 306 306 305
316 316 315 315 315 315 315 315 316 318 320 322 323 323 324 324 325 326 327 327 325 326 327 328 328 328 328 327 327 325 324 324 323 325 328 329 329 329 330 331 331 330 329 327 324 323 318 310 306 306 306 305 304 303 303 303 304 305 306 306 306 306 306 306 306 307 307 307 306 306 306 306 306 306 306 306 307 306 306 306 306 306 306 306 306
315 315 316 316 315 316 315 315 315 316 317 319 322 324 324 325 325 325 325 325 325 326 326 327 328 327 328 327 327 326 324 323 322 324 326 328 329 328 329 330 331 330 329 327 325 323 319 312 308 305 305 305 304 303 303 303 303 305 306 306 306 306 306 306 307 307 307 307 307 306 306 306 306 306 306 306 306 306 307 306 306 306 306 306 306
316 315 315 316 316 316 315 316 315 315 316 317 319 321 324 326 327 327 327 326 326 326 326 327 327 327 327 327 327 326 325 323 323 322 324 326 327 326 327 328 330 330 329 328 325 324 321 316 309 305 306 305 304 303 303 303 303 304 306 306 306 306 306 307 307 307 307 307 307 307 307 306 306 306 306 306 306 306 306 307 307 307 307 306 306
315 315 315 316 316 316 316 316 315 316 316 316 316 318 321 324 326 328 328 328 328 328 328 327 327 327 327 327 327 326 326 324 323 322 322 323 325 325 325 326 329 329 329 329 327 325 322 318 312 306 306 305 305 304 303 302 303 304 305 305 306 305 305 307 308 307 307 307 307 307 307 307 306 306 306 306 306 306 307 307 307 307 307 307 307
315 315 315 315 315 316 316 315 315 315 316 316 316 316 317 319 322 325 326 327 328 329 330 329 328 327 327 327 326 325 326 324 322 322 324 323 322 322 322 325 328 327 327 328 328 325 322 320 316 310 306 306 305 304 303 302 302 303 304 305 305 305 305 306 307 307 307 307 307 307 307 307 307 306 306 306 306 306 307 307 307 307 307 307 307
314 314 315 315 315 315 316 316 315 315 315 316 317 317 317 318 319 321 324 325 326 327 328 329 328 328 329 328 326 325 325 325 323 320 322 325 323 319 321 325 327 326 327 327 327 325 321 320 320 313 308 306 306 305 303 302 302 302 304 304 305 305 305 306 307 307 307 307 307 307 307 307 307 307 306 306 307 306 307 307 307 307 307 307 307
314 314 314 314 314 315 315 316 315 315 315 316 317 318 319 319 320 321 323 324 328 330 327 326 327 327 327 327 327 326 326 327 328 325 322 323 322 318 319 323 324 324 326 326 326 325 321 321 322 316 311 308 307 307 304 302 301 302 303 304 304 304 304 305 306 307 307 307 307 307 307 307 307 307 307 307 306 306 306 307 306 307 307 308 308
314 314 314 313 314 314 315 316 315 315 315 316 317 318 319 320 321 322 323 323 327 329 330 332 331 328 326 328 327 323 324 326 327 329 327 324 321 318 322 324 323 324 325 326 326 323 322 324 323 318 314 311 309 309 307 304 302 301 302 303 303 303 304 304 305 306 306 306 306 306 306 307 307 307 306 306 306 306 306 306 306 306 307 308 308
313 313 313 313 313 313 314 315 315 315 315 316 317 317 319 320 321 322 322 325 328 325 328 334 332 328 327 329 328 326 327 327 327 327 326 324 321 320 327 330 329 327 326 327 326 322 322 324 323 320 316 313 312 313 310 307 303 301 301 302 303 303 303 304 304 305 306 306 306 306 306 306 306 306 306 306 306 306 306 306 306 306 307 309 309
313 313 313 314 314 314 314 315 316 315 315 316 317 318 319 320 321 322 322 328 335 332 330 333 332 330 330 329 328 330 332 332 332 329 326 325 323 321 324 328 330 330 329 330 328 323 323 323 323 320 316 315 315 315 314 311 307 303 301 301 302 303 303 303 303 304 305 306 306 306 306 306 306 306 306 306 306 306 306 306 306 306 307 311 313
312 312 313 313 314 314 314 315 315 315 315 316 317 318 320 322 322 323 324 326 331 333 330 331 333 333 334 332 329 331 332 332 333 331 331 329 327 326 324 323 325 328 330 328 325 324 325 324 323 320 318 319 318 316 316 314 311 306 303 301 301 302 302 303 303 303 304 305 305 306 306 306 306 306 306 305 305 306 305 305 305 308 309 312 315
312 312 312 313 313 314 314 315 315 315 315 316 316 319 320 322 323 323 325 324 323 327 326 326 330 332 332 333 332 331 331 331 330 331 333 330 327 329 329 326 322 323 324 324 324 325 325 324 322 319 321 322 319 317 317 316 314 311 306 303 301 301 302 302 303 303 303 303 304 305 306 306 306 305 305 305 305 305 305 305 305 307 310 313 315
311 312 312 312 313 314 314 314 315 315 315 316 316 318 320 321 323 323 324 324 323 324 325 324 326 329 331 331 330 330 330 330 330 330 331 328 326 327 327 326 321 319 322 325 326 325 325 325 322 319 320 322 319 317 318 317 316 314 310 306 303 301 301 302 302 302 302 302 303 304 305 306 305 305 305 305 305 305 305 305 305 305 307 310 312
311 312 312 312 312 313 315 315 315 316 316 317 317 319 321 321 322 323 323 325 325 323 323 323 324 325 327 327 326 328 330 330 330 329 328 326 325 324 322 322 322 322 324 325 325 326 327 325 323 322 322 321 319 317 317 318 317 316 313 310 307 303 301 301 301 302 302 302 302 303 304 304 305 305 305 305 304 305 304 304 305 304 304 305 306
311 311 311 311 312 313 314 315 315 316 317 318 319 319 321 321 322 322 322 324 324 324 324 323 324 326 324 323 325 328 330 330 329 328 326 325 324 322 321 323 325 325 325 325 325 328 327 325 325 326 324 321 319 318 317 317 318 317 315 312 309 306 303 301 301 301 301 302 302 302 302 303 304 304 304 304 304 304 304 304 304 304 304 303 303
310 311 311 311 311 312 314 315 316 316 317 318 319 320 320 321 321 321 322 322 321 323 326 325 324 328 327 324 324 326 328 327 326 326 325 324 323 323 323 324 325 325 326 326 325 325 325 324 324 324 322 321 320 320 319 317 317 317 316 314 311 308 306 303 301 300 300 301 301 302 302 302 302 303 304 304 304 304 304 304 304 304 304 303 303
310 310 311 311 312 313 314 315 316 316 316 317 317 318 318 320 321 321 321 321 321 320 325 327 324 325 327 324 323 325 326 324 322 323 322 322 323 323 322 323 323 323 324 324 324 325 324 323 323 322 321 321 320 320 320 318 317 317 317 316 314 311 308 306 304 302 301 300 300 301 301 302 302 302 303 303 303 303 303 303 303 303 303 303 303
310 311 311 312 313 313 314 316 316 316 316 317 317 317 318 319 320 321 320 321 322 320 321 325 324 324 326 325 324 326 326 324 323 323 322 323 323 323 323 324 323 322 322 322 323 325 323 322 322 322 322 322 321 320 320 319 318 317 317 316 316 315 313 310 307 304 303 301 300 300 300 301 302 302 302 302 302 302 303 303 303 303 303 303 303
311 312 313 314 313 314 315 315 315 315 315 315 316 316 317 318 319 320 321 320 321 321 321 323 324 324 325 325 324 325 325 325 325 324 324 324 324 324 324 324 323 323 324 322 322 323 323 323 322 322 324 323 321 321 320 319 318 318 317 317 316 316 315 314 312 309 307 305 303 301 300 300 300 301 301 301 302 302 302 302 302 302 303 302 302
311 312 313 313 313 313 314 313 313 313 313 313 314 315 315 317 318 318 319 319 319 320 321 321 322 322 322 322 322 323 324 324 323 323 323 323 324 324 324 324 323 324 325 324 321 322 324 323 323 322 323 322 321 321 320 319 319 318 318 317 317 316 316 315 314 313 311 309 308 306 304 302 300 300 300 301 301 301 301 301 302 302 301 302 302
310 311 312 312 312 312 313 312 311 312 311 312 312 312 314 314 316 317 317 317 317 318 318 317 318 319 320 320 320 320 321 321 320 320 321 322 323 323 323 322 322 322 323 323 321 322 323 321 321 321 321 321 321 320 319 319 319 318 317 317 316 316 316 315 315 314 314 313 312 311 309 307 304 302 301 300 300 300 301 301 301 301 301 301 301
309 310 310 311 311 312 312 311 311 313 313 314 314 313 313 311 312 314 315 315 315 315 314 314 316 316 317 318 318 318 318 318 318 318 318 320 321 321 321 320 320 320 321 322 321 321 322 321 320 320 320 321 320 320 319 319 318 317 317 316 315 315 315 314 314 313 313 313 313 313 312 311 310 308 305 302 300 299 299 300 300 300 300 300 300
309 309 310 310 311 311 311 311 312 315 314 314 314 313 312 311 310 311 311 311 312 312 311 312 312 312 313 313 314 315 315 315 315 315 315 316 317 318 318 318 317 317 318 318 319 319 319 319 319 319 319 319 319 318 318 317 316 316 315 314 314 314 313 313 312 312 311 311 312 312 312 312 312 311 309 306 303 301 299 299 299 299 299 300 300
308 309 310 310 310 311 310 311 312 312 312 311 311 310 310 310 309 309 309 309 309 309 308 308 307 307 308 308 308 308 309 309 310 309 310 311 313 314 315 314 313 313 315 316 316 316 316 316 317 317 317 317 316 316 315 315 314 313 313 312 312 311 310 310 309 309 310 310 310 310 310 310 311 310 309 307 305 302 300 299 298 298 298 298 298
307 307 308 309 309 309 309 309 309 308 308 308 307 307 307 307 307 307 307 307 307 307 307 306 306 306 306 306 306 306 306 306 306 306 306 307 308 308 308 308 308 309 310 311 312 312 313 313 314 314 314 314 313 313 312 312 311 310 310 309 309 308 308 308 308 308 308 308 308 308 309 309 309 308 308 306 305 303 301 300 299 298 298 298 298
306 306 306 307 307 307 307 307 306 306 306 306 306 306 307 306 307 306 306 306 306 306 306 306 306 306 306 306 306 306 306 306 306 306 306 306 305 305 305 305 305 305 305 305 306 306 307 308 308 308 309 309 309 309 308 308 308 308 307 307 307 306 306 305 306 306 306 306 306 306 307 307 307 307 307 307 306 306 305 303 302 301 300 299 298
305 305 306 306 306 305 306 306 305 306 305 305 306 305 305 305 305 305 305 305 305 305 305 305 305 305 305 305 305 305 305 305 305 305 306 305 305 305 305 305 304 304 304 304 303 303 303 303 303 303 304 304 305 305 306 306 306 306 305 305 305 304 303 303 304 305 305 305 305 305 305 305 305 305 306 306 306 307 307 307 306 305 304 303 301
305 305 305 305 305 305 304 304 304 304 304 303 303 303 304 304 304 304 304 304 304 304 304 303 303 304 303 303 303 303 303 304 304 304 304 304 304 304 304 304 303 303 303 303 303 302 302 302 302 301 301 301 301 302 303 303 303 303 303 303 303 303 302 303 303 304 304 304 304 304 304 304 304 304 304 304 304 305 305 306 306 307 307 306 305
304 303 303 303 303 303 303 303 302 302 302 302 302 302 302 302 302 302 303 303 303 303 302 302 302 302 302 302 302 302 302 302 302 302 302 302 302 302 302 302 301 301 301 301 301 301 300 300 300 300 300 300 300 300 300 300 300 300 300 301 302 302 302 302 301 301 302 303 303 302 302 301 301 301 302 302 302 303 303 303 304 305 306 306 306
302 302 302 302 302 302 302 302 302 302 302 301 301 301 301 301 302 302 302 302 302 301 301 301 301 301 301 301 300 300 300 300 300 300 300 300 299 299 299 299 299 299 298 298 298 297 297 297 296 296 297 297 297 297 297 296 296 296 296 296 297 298 298 298 299 299 298 299 300 300 300 299 298 299 299 299 300 300 301 302 302 303 303 304 305
302 301 301 301 301 301 301 301 301 301 301 301 300 301 300 300 301 301 301 300 300 300 300 300 300 299 299 299 299 299 299 298 298 298 298 297 297 297 296 296 296 296 295 295 294 294 293 293 293 293 292 292 293 293 292 292 292 291 291 291 291 292 292 293 293 293 293 292 292 293 296 298 298 297 296 295 296 296 297 299 300 301 302 302 303
301 301 301 301 301 301 301 301 300 300 300 300 300 300 300 299 300 300 299 299 299 299 299 299 298 298 298 298 297 297 296 296 296 295 295 295 295 294 294 294 294 293 293 292 292 292 291 291 291 290 290 290 290 290 289 289 289 289 289 289 289 289 289 289 288 288 288 288 288 288 290 292 293 295 294 293 293 293 294 295 296 298 299 300 301
301 300 300 300 300 300 300 300 300 299 299 299 299 299 299 299 299 299 299 298 298 298 297 297 297 296 296 296 295 295 294 294 294 293 293 293 293 293 293 293 292 292 292 292 291 291 291 290 290 289 289 289 289 289 289 288 288 288 288 288 288 288 288 287 287 287 287 287 287 287 288 288 289 291 292 292 292 292 292 293 293 294 295 297 298
Wind_Speed
10 13 16 18 17 17 16 15 14 14 13 12 11 10 10 9 8 7 6 6 4 1 0 1 1 1 1 0 3 5 7 7 7 7 7 6 6 5 6 7 7 6 6 5 5 5 6 5 5 4 4 4 4 5 5 5 5 6 5 5 5 4 4 4 5 5 6 7 6 5 6 6 5 5 5 5 6 5 5 5 6 6 5 5 5
9 12 15 18 17 17 16 14 13 15 14 12 12 10 10 9 9 7 6 6 4 2 2 2 2 1 1 1 2 3 4 5 5 5 4 4 4 4 5 5 5 5 4 4 4 4 5 5 6 5 5 5 5 5 5 5 5 5 6 5 5 5 5 5 4 5 6 6 6 6 7 6 6 6 6 6 6 6 5 6 7 7 6 6 5
9 11 13 17 17 16 15 13 12 13 14 13 12 11 10 9 8 7 6 6 5 4 3 3 2 2 2 2 1 2 4 5 5 5 5 4 4 4 5 4 4 4 3 3 3 4 5 4 6 6 5 5 5 5 5 5 5 5 5 5 5 6 5 5 5 5 5 5 6 6 6 6 6 7 7 7 6 6 6 6 7 8 7 6 6
8 10 12 15 17 16 14 13 12 13 13 13 13 12 10 9 8 6 6 5 5 5 4 3 3 3 3 2 1 2 3 4 4 4 4 4 4 4 4 4 2 3 2 2 3 4 4 3 5 6 5 4 5 5 5 5 5 5 5 5 5 5 5 4 4 4 4 4 5 5 5 5 5 6 6 6 5 5 5 5 6 7 8 7 7
8 9 11 13 16 16 14 12 12 12 13 13 12 11 10 9 8 6 5 4 5 6 5 4 3 3 3 2 1 1 2 2 3 2 3 3 3 3 3 2 2 2 1 1 1 2 3 2 3 5 5 4 4 4 5 4 4 4 4 4 4 4 4 4 4 4 4 3 4 4 5 5 5 6 7 6 4 4 3 3 4 6 7 7 6
8 9 10 11 14 15 14 13 11 11 12 13 12 10 9 9 8 7 5 4 5 5 6 5 4 4 4 4 3 2 1 1 1 2 3 4 4 3 2 2 2 1 1 0 1 2 3 2 2 4 5 5 4 4 4 4 3 3 3 3 3 4 4 4 4 3 3 3 3 4 5 5 5 5 6 5 5 4 3 3 2 3 4 5 5
7 8 10 10 12 14 14 13 12 11 11 12 11 10 9 9 8 6 5 5 5 5 6 5 4 4 4 4 3 2 1 1 2 2 4 5 5 4 2 1 1 0 1 2 2 2 4 4 3 3 4 4 4 4 4 3 4 4 4 4 4 4 4 4 4 4 4 4 4 4 5 5 5 5 5 4 4 4 4 4 3 2 1 2 3
6 8 9 10 10 12 13 12 11 11 11 11 11 11 10 9 8 6 5 5 4 5 5 4 4 4 4 5 3 3 3 3 3 4 6 7 6 5 2 1 1 1 1 3 5 4 4 5 3 3 5 6 7 6 5 4 4 5 6 7 7 6 6 5 5 5 4 4 4 4 4 4 4 3 3 3 3 4 5 5 4 4 2 1 0
5 7 8 9 10 11 12 12 11 11 11 11 11 10 10 9 8 7 5 4 3 4 4 3 4 5 5 5 4 4 4 4 4 6 8 8 7 5 1 1 2 1 1 4 6 6 5 4 1 2 6 8 9 9 8 6 5 5 6 7 8 8 7 6 5 5 5 4 4 3 2 2 2 1 1 2 3 5 6 6 6 5 4 3 3
4 5 7 9 9 10 11 11 11 11 10 10 10 10 10 9 8 7 6 5 4 3 3 3 3 4 5 5 5 4 5 5 5 7 9 8 7 4 1 1 2 2 1 3 6 6 6 4 3 5 8 10 10 9 9 7 5 5 5 6 7 7 7 6 5 5 5 4 4 3 2 1 1 1 1 2 5 7 8 8 8 7 7 5 4
5 4 5 7 9 10 10 11 11 11 10 10 9 9 9 9 8 7 6 5 4 4 3 3 4 4 4 5 5 5 5 5 6 8 7 7 6 3 0 1 2 3 3 4 6 7 8 8 7 7 8 9 9 8 8 6 4 3 3 4 4 4 4 4 4 4 4 3 3 3 2 2 1 0 1 3 5 6 6 8 8 8 8 7 6
5 4 4 5 7 9 10 10 11 11 11 10 9 9 9 9 8 8 7 5 5 5 4 3 4 4 4 4 4 5 5 5 7 7 5 6 6 1 1 1 2 3 4 5 7 8 10 11 10 9 8 8 8 7 6 4 2 2 2 3 3 3 3 3 3 3 2 2 2 2 2 2 2 1 2 2 2 4 5 7 7 6 6 7 7
6 5 4 4 5 7 8 10 10 11 11 10 10 9 9 10 9 8 7 6 6 6 5 4 3 4 4 4 4 5 5 6 6 6 5 5 5 1 1 1 2 3 5 6 7 9 11 12 12 11 8 7 6 5 3 1 2 2 3 3 3 3 4 4 4 4 4 3 3 2 2 1 1 2 3 4 4 6 7 7 6 4 3 5 6
6 5 4 3 3 5 6 9 10 11 11 11 10 10 10 10 9 9 7 7 7 6 5 5 4 4 5 5 5 5 6 6 6 5 5 5 5 3 1 2 3 4 6 6 7 9 11 12 11 8 6 4 3 1 0 1 3 3 3 2 3 3 3 4 4 4 4 3 3 3 2 2 2 2 3 5 5 5 6 5 5 3 0 1 2
6 4 4 4 3 4 5 7 9 10 11 12 11 11 10 10 10 9 8 8 8 7 6 6 5 5 5 5 5 5 5 5 5 5 5 6 6 4 3 4 5 6 7 8 9 11 12 11 8 5 5 4 1 1 2 3 3 2 2 2 2 3 3 3 3 3 3 3 3 3 3 3 3 3 4 4 3 4 5 5 5 4 1 3 4
6 5 3 2 2 3 4 5 7 9 10 12 12 12 12 11 11 11 10 10 9 8 7 7 6 5 5 4 5 5 5 5 5 5 5 6 7 6 4 5 7 8 9 9 10 12 12 9 6 5 4 3 1 2 2 4 3 2 2 2 2 3 3 3 4 3 3 3 3 2 3 3 3 4 5 5 5 5 5 5 5 5 3 5 7
5 4 4 3 1 1 3 5 6 8 10 11 12 12 13 12 12 12 11 11 11 9 8 8 7 7 6 5 6 6 5 6 6 6 6 5 6 7 5 5 6 8 10 10 10 12 12 9 6 5 4 2 1 1 2 3 3 2 2 2 2 3 3 4 4 4 4 4 3 3 3 3 4 4 5 6 7 6 5 5 5 5 4 5 7
3 2 2 3 3 3 2 3 5 7 9 10 11 12 13 13 13 13 13 13 12 10 9 9 9 8 8 7 7 7 7 7 7 8 8 7 7 7 7 7 7 9 12 11 10 11 11 9 6 5 4 2 1 1 2 2 2 1 1 1 1 2 3 4 4 5 5 5 5 4 4 4 4 5 5 7 8 7 6 6 5 5 5 6 6
2 2 2 2 2 3 4 4 4 6 8 10 11 12 12 13 14 15 15 14 13 11 10 10 10 10 10 9 10 9 8 9 9 9 9 8 9 9 9 9 9 10 13 13 11 11 11 8 6 4 4 3 1 1 2 2 2 1 1 0 1 2 3 4 4 4 4 5 5 5 5 5 5 5 6 7 8 8 8 7 6 6 6 6 7
5 5 4 5 5 4 4 4 5 5 6 9 10 12 12 13 14 15 15 15 14 13 12 12 12 12 12 12 12 11 10 10 10 10 10 10 11 11 10 11 10 11 14 14 11 10 10 8 6 4 3 3 2 1 2 2 2 1 1 1 2 3 4 4 4 4 4 5 5 5 5 5 5 6 6 7 8 8 8 8 8 7 7 7 7
8 7 7 7 7 7 6 5 5 5 6 8 9 11 12 13 13 14 14 14 14 14 13 13 13 13 14 13 13 12 11 11 11 12 12 12 13 13 12 12 11 12 15 15 12 11 11 9 6 3 2 2 2 2 3 3 3 2 2 2 2 3 4 3 3 3 3 4 4 5 5 5 5 6 6 7 7 8 8 8 8 8 8 8 8
9 8 8 8 8 9 9 8 7 6 6 7 9 9 11 12 13 14 14 14 14 14 13 14 14 14 14 14 13 12 12 12 11 11 12 13 14 14 14 13 12 14 15 16 15 14 12 10 7 4 2 2 3 3 4 4 4 3 3 3 3 3 3 3 2 2 3 3 4 4 4 5 5 6 6 7 7 7 8 8 8 8 8 8 8
9 10 10 10 10 10 10 9 9 8 8 7 8 9 10 10 11 12 13 14 14 14 14 14 14 14 14 13 13 12 12 12 11 11 12 13 15 15 14 12 13 15 15 16 17 16 12 9 9 7 4 3 3 4 4 6 5 5 5 4 4 4 4 3 2 1 2 3 3 3 4 4 5 6 6 7 7 7 8 8 9 9 9 9 9
10 10 11 11 11 11 11 10 9 9 9 8 7 8 9 9 10 11 12 12 13 14 15 15 15 14 14 14 13 13 12 11 11 11 13 14 15 15 13 12 14 15 15 16 17 17 13 11 11 9 6 4 3 4 5 6 7 6 6 6 5 5 4 4 2 1 1 2 2 3 3 4 4 5 6 7 7 8 8 9 10 10 10 10 9
8 9 10 11 12 12 11 11 10 9 9 9 8 7 7 8 9 9 11 12 13 15 14 13 14 14 13 13 13 13 12 12 12 12 13 15 15 13 12 13 14 14 14 15 16 17 16 14 14 10 8 6 5 5 6 7 8 8 7 7 7 6 6 5 4 2 1 1 2 2 3 3 4 5 6 6 7 8 9 9 10 10 11 10 9
7 8 9 10 11 12 12 12 11 10 9 9 8 7 6 6 6 7 9 10 13 15 15 15 14 13 13 13 14 13 11 11 13 14 15 15 16 14 13 14 13 12 13 15 16 18 18 17 17 13 9 8 6 7 7 8 9 9 9 8 8 8 8 7 6 4 3 2 2 2 2 3 4 4 5 6 7 8 8 9 10 10 11 9 8
7 8 8 7 7 9 11 12 12 11 10 9 9 8 6 5 4 5 5 7 10 9 13 16 14 13 13 14 16 16 13 11 12 14 15 16 16 14 14 14 13 12 14 16 17 18 17 17 19 16 12 10 7 8 8 9 10 10 11 10 9 9 9 9 8 7 5 4 3 3 2 3 3 4 5 5 6 7 8 9 9 10 11 9 8
6 7 7 7 6 6 9 11 12 11 11 10 10 9 7 6 5 4 3 8 12 9 11 15 14 14 14 14 17 18 17 15 15 14 14 14 12 11 13 15 15 16 17 17 15 16 16 16 19 16 14 12 9 8 9 9 10 11 12 12 11 11 10 10 10 9 8 6 6 5 4 4 4 4 4 5 5 6 8 9 10 10 10 8 7
6 6 6 7 6 4 5 9 12 12 12 11 11 10 9 7 6 5 4 8 14 14 15 17 15 13 12 12 15 17 15 15 17 18 18 14 9 11 14 16 17 19 19 17 16 16 15 15 17 17 16 14 11 10 8 9 10 11 12 14 14 13 12 12 12 11 10 9 8 7 7 6 5 5 5 5 6 6 7 8 9 10 9 8 7
6 5 5 6 5 4 2 6 10 12 13 12 13 12 11 9 8 7 6 7 10 11 12 14 15 14 12 10 11 15 15 14 15 17 20 16 11 13 14 15 17 19 18 16 17 17 14 14 16 17 15 14 15 13 9 8 10 11 12 14 15 15 14 14 13 13 12 11 10 10 9 9 8 7 6 6 6 7 7 7 8 8 8 8 8
6 5 4 4 4 3 2 4 7 10 12 13 13 13 12 11 10 9 8 7 7 7 9 12 14 16 16 13 11 14 13 11 13 14 14 13 12 14 14 14 15 18 17 13 13 14 14 12 13 15 16 17 18 14 8 8 10 11 13 13 15 16 17 16 16 15 14 13 13 12 12 11 10 9 8 8 7 7 8 8 8 8 8 8 8
6 5 4 3 3 2 1 3 6 8 10 12 13 13 13 12 11 10 9 7 6 7 9 9 11 13 15 14 14 14 10 8 10 11 10 9 9 10 9 8 9 12 13 12 11 12 13 11 11 13 15 16 16 13 9 8 10 11 12 14 15 16 17 18 18 17 16 16 15 14 14 14 13 12 10 10 9 8 8 9 9 8 8 8 8
5 5 4 2 1 1 2 4 5 7 8 10 11 12 12 11 11 10 9 9 7 6 5 6 7 8 11 13 15 14 9 7 8 8 8 7 7 8 8 8 7 8 9 10 10 11 13 12 11 11 11 12 13 12 11 9 10 11 12 13 14 15 17 18 19 19 19 18 17 16 16 16 15 14 13 12 11 10 10 10 11 10 10 9 8
4 4 4 2 1 1 3 4 6 6 7 8 9 10 10 10 10 10 9 9 8 7 6 7 9 7 6 9 13 12 9 9 9 8 8 8 7 7 8 10 10 9 8 9 9 10 12 11 10 9 8 10 11 11 13 14 13 12 12 12 13 14 15 17 19 20 20 20 19 19 19 18 17 16 15 14 13 12 12 12 12 12 12 11 9
4 4 3 2 1 2 2 4 5 6 7 7 8 8 8 9 9 9 8 7 7 8 8 7 8 9 6 6 7 8 9 9 8 8 7 7 7 7 6 8 9 9 9 8 8 10 12 11 10 9 9 10 10 11 13 14 15 15 15 15 14 14 15 16 17 19 21 21 21 21 21 20 19 18 18 17 15 14 14 14 14 14 14 13 12
3 3 3 3 3 3 4 4 4 5 6 7 7 6 6 7 7 7 7 7 7 9 10 7 7 9 6 5 5 5 5 4 5 6 6 6 8 8 8 7 7 7 10 10 10 10 11 11 11 10 11 11 11 11 12 13 14 16 16 17 18 17 17 17 17 18 19 21 22 23 23 22 21 21 20 19 18 16 16 16 16 16 16 16 15
4 4 4 4 4 5 5 4 5 5 5 6 5 5 5 5 6 7 7 8 7 7 9 8 7 9 6 4 4 5 4 5 6 5 5 6 5 7 9 8 7 10 12 11 10 10 11 12 12 13 13 12 11 10 11 12 13 14 15 17 20 21 20 20 20 19 19 20 21 22 23 24 23 23 22 21 20 19 18 18 18 18 18 18 18
5 5 5 4 4 5 5 5 6 6 6 6 5 6 6 6 7 7 6 6 5 6 6 6 6 8 8 6 7 8 8 8 8 6 5 5 4 3 6 8 9 12 13 11 10 11 13 14 13 13 13 12 12 10 10 12 15 17 16 17 19 21 23 23 22 21 21 20 20 21 21 23 24 24 25 24 23 22 21 20 20 20 20 20 19
5 5 5 4 4 6 6 6 7 7 7 7 7 7 7 7 7 6 5 6 7 7 5 4 4 3 3 3 4 4 5 6 7 7 8 7 7 6 6 7 7 7 9 11 11 12 14 15 14 13 13 13 13 13 14 17 19 19 18 19 20 21 23 24 24 23 22 21 20 20 20 21 22 23 24 25 26 25 24 23 23 23 22 21 21
5 6 6 5 6 7 8 8 10 11 10 9 9 8 7 7 8 7 7 8 8 6 5 6 6 4 3 3 2 1 2 4 6 8 9 9 10 10 10 10 10 8 7 8 9 10 11 13 13 12 13 14 15 16 17 19 20 20 21 21 21 22 23 23 23 22 22 21 21 20 20 19 19 20 21 23 24 25 26 26 25 25 25 23 23
6 6 7 7 8 9 9 10 12 12 10 9 9 8 8 9 10 10 10 11 10 8 8 8 8 6 5 4 2 2 3 5 7 8 8 9 10 11 12 13 14 13 11 10 10 11 11 10 10 11 12 13 14 15 17 18 21 23 23 22 21 21 21 21 21 21 21 21 20 18 17 17 17 18 18 18 19 21 23 25 26 26 26 26 25
8 8 8 10 10 11 11 13 13 11 10 10 10 10 11 11 12 13 13 14 13 12 12 13 12 11 10 8 7 6 5 4 4 5 5 6 7 9 11 13 13 13 13 13 14 15 15 15 14 14 14 15 15 17 19 20 21 22 24 25 24 22 20 20 18 17 17 17 17 17 16 16 16 16 16 15 15 16 18 20 22 23 25 26 26
11 11 12 13 13 13 14 15 14 13 14 14 13 15 16 15 15 16 15 15 16 15 15 16 15 14 13 12 12 11 11 10 9 9 8 7 7 7 8 8 9 10 11 12 13 14 15 15 14 15 16 16 16 17 18 20 20 20 20 22 24 24 21 17 14 14 15 16 15 14 15 15 15 16 15 15 15 14 15 16 18 19 20 22 23
16 17 17 17 17 17 17 18 18 18 19 19 18 19 19 18 18 18 16 17 18 17 16 16 14 13 13 12 11 11 10 9 9 9 8 8 8 8 8 9 9 9 9 9 10 10 10 11 11 12 13 13 13 14 15 16 17 17 17 17 19 20 17 18 24 23 17 13 12 13 14 15 16 17 18 18 18 17 17 18 18 19 19 20 20
21 21 21 21 21 21 20 20 21 21 21 21 20 19 18 18 18 17 17 17 18 16 15 15 14 12 12 11 11 10 10 9 8 8 8 8 8 8 8 9 9 10 10 10 10 10 10 10 10 11 11 11 11 11 12 12 14 15 15 14 12 12 15 24 30 27 20 17 17 17 16 17 18 19 20 21 21 22 22 23 23 22 22 22 22
23 23 23 22 22 21 21 21 21 21 21 21 20 18 17 17 17 16 16 15 16 15 14 14 13 12 11 12 11 10 10 9 9 9 9 9 9 9 9 9 10 10 10 11 11 10 11 11 12 12 12 12 11 10 10 10 11 12 12 12 10 11 18 24 26 26 28 27 24 22 22 22 23 23 23 23 23 23 24 25 26 26 26 26 25
23 23 22 22 21 21 20 20 20 20 20 20 19 16 16 16 15 14 14 12 12 13 13 12 11 11 11 10 10 10 10 10 10 10 10 10 10 10 10 11 11 11 12 11 12 12 13 13 13 13 13 13 13 12 12 11 11 10 10 9 9 11 15 19 21 24 29 30 29 29 29 29 29 28 26 24 24 24 24 25 26 27 28 28 29
22 22 21 20 19 19 18 18 18 19 18 18 17 14 13 13 12 11 11 11 11 12 11 9 10 10 8 8 9 9 9 9 10 10 10 10 10 10 11 11 11 12 12 12 13 14 14 14 14 14 14 14 14 14 15 15 14 14 13 11 10 10 11 12 15 17 21 27 31 31 31 30 30 29 28 27 26 25 25 25 25 27 28 28 29
21 20 19 18 17 17 16 16 17 17 17 15 14 12 11 10 10 9 9 10 10 10 9 8 9 8 6 7 8 8 8 9 9 9 9 10 10 11 11 11 12 12 13 13 13 13 13 13 14 15 15 15 15 15 15 16 17 17 16 16 15 14 13 13 14 15 17 21 26 30 33 33 32 30 30 31 31 29 29 27 26 26 26 26 28
20 19 18 17 16 15 14 14 15 15 14 13 11 11 10 9 8 8 8 9 9 9 8 7 7 6 6 6 7 7 8 8 8 9 9 9 10 10 11 11 12 13 13 13 13 14 14 15 15 16 15 16 16 16 16 17 18 18 18 19 19 19 18 18 18 19 20 21 24 29 32 35 37 36 32 33 34 33 32 30 28 27 25 25 25
19 18 17 16 14 13 11 11 13 13 12 11 9 9 8 7 7 7 7 8 9 8 6 5 5 4 4 5 6 7 7 7 8 8 9 9 9 10 10 11 12 12 12 13 13 14 15 15 15 15 15 16 16 16 16 17 17 18 19 20 21 22 22 21 21 21 22 22 24 28 30 33 37 38 35 35 35 35 34 33 31 29 27 26 25
Wind_Direction
177 172 177 183 179 174 173 175 180 182 180 183 185 186 192 198 204 200 197 205 206 206 341 358 13 21 350 106 127 123 123 125 129 132 135 135 126 113 96 83 72 64 51 31 26 33 37 38 35 29 29 26 23 25 27 36 47 57 69 76 82 87 71 83 107 102 100 111 113 107 113 112 108 107 103 98 94 92 93 93 90 86 80 81 87
182 176 176 182 184 180 178 176 177 181 180 184 187 190 197 206 209 204 208 212 219 246 293 305 316 309 288 223 166 131 116 109 109 113 107 103 90 73 74 81 80 75 57 30 16 17 28 34 36 31 30 31 28 25 23 26 33 43 49 54 58 60 62 70 83 84 88 94 93 96 100 99 95 90 85 83 83 83 86 88 89 86 81 84 86
177 180 178 179 185 184 183 180 179 181 182 185 185 191 198 208 212 207 210 215 231 254 270 273 286 289 282 252 173 90 76 67 67 69 65 64 56 41 44 54 77 84 67 36 5 4 19 28 32 30 31 32 33 29 24 24 24 28 30 33 39 45 53 62 69 71 74 80 86 92 94 92 88 82 75 73 71 72 75 79 87 88 83 81 81
170 179 181 178 182 187 189 186 185 184 185 187 186 192 198 208 215 214 217 227 246 263 268 262 263 275 279 264 70 71 75 72 73 72 61 53 43 34 35 42 70 85 88 56 5 6 13 14 18 20 32 33 32 30 26 29 29 27 22 18 19 25 30 40 50 54 60 69 78 82 84 80 73 70 61 54 51 55 64 67 79 90 90 84 80
163 176 182 181 180 186 192 191 190 187 188 190 189 193 198 210 222 228 233 248 262 275 276 273 261 251 249 229 172 101 95 87 82 69 51 38 28 23 29 44 71 79 103 96 352 354 357 5 5 8 23 28 25 16 12 18 25 27 21 16 10 9 7 7 18 27 38 46 55 58 59 59 53 54 47 34 26 21 31 48 65 86 98 96 92
154 170 182 183 180 184 190 195 197 194 193 193 195 197 202 214 229 239 248 266 271 277 277 278 265 240 230 210 196 192 152 85 51 36 30 17 5 1 10 52 73 87 122 201 291 324 350 353 340 352 7 14 17 3 348 340 341 347 346 344 347 355 351 348 353 358 4 5 12 16 20 32 36 50 53 37 20 3 355 358 27 72 95 105 106
146 163 180 186 182 183 187 194 198 200 199 198 201 206 212 220 233 245 254 271 275 277 279 273 256 244 233 216 213 229 258 318 351 1 3 352 341 337 339 61 87 132 205 246 273 299 338 336 312 323 333 341 341 337 332 320 308 302 299 296 300 314 318 320 322 326 329 334 343 351 3 19 31 54 59 37 21 12 4 355 345 354 58 102 114
137 153 173 186 188 186 187 192 195 199 202 203 204 209 218 223 232 240 249 267 275 283 288 274 245 245 238 226 234 258 284 309 328 341 346 340 331 324 318 64 108 174 250 266 275 281 320 327 298 305 318 321 317 317 318 313 304 294 287 284 284 288 291 292 293 296 299 313 326 335 354 16 32 52 48 25 357 354 359 360 350 339 333 342 307
128 143 160 177 190 193 192 193 194 198 201 203 204 209 215 220 226 228 232 242 255 274 283 273 249 245 242 238 247 268 292 311 325 337 339 338 334 327 316 104 132 176 246 274 282 283 307 323 300 309 317 315 311 310 313 314 309 296 287 283 284 285 285 283 280 280 284 297 308 315 335 6 28 25 10 352 326 330 335 337 337 332 326 322 307
118 138 147 162 181 194 199 198 196 198 200 201 202 206 208 213 215 213 216 218 235 249 248 253 244 241 241 243 253 270 294 306 317 334 337 342 345 339 312 135 154 197 234 275 294 304 308 308 294 305 313 310 306 307 312 315 314 304 296 293 292 290 287 284 280 277 280 289 290 293 297 291 353 321 289 305 317 320 323 329 333 327 320 321 316
96 132 143 153 168 186 198 202 201 201 203 203 200 199 201 209 209 203 212 218 230 238 237 237 234 240 243 245 253 266 285 299 315 332 336 349 356 354 164 154 175 221 248 283 305 319 316 308 303 309 311 304 299 306 313 315 322 323 322 322 318 312 304 298 296 291 290 295 287 287 284 263 260 270 257 293 320 320 322 333 339 338 334 340 338
75 113 143 155 160 177 191 200 204 205 208 208 204 200 198 205 209 206 211 217 229 238 240 239 232 241 252 252 257 274 291 303 314 333 343 358 2 6 137 157 187 242 271 292 306 317 316 313 316 320 311 298 297 308 315 316 345 2 17 21 19 18 11 7 0 357 347 340 325 315 314 287 257 228 216 250 305 307 315 327 336 341 342 351 351
62 89 124 157 164 174 186 198 203 206 210 212 209 206 201 203 212 216 217 215 223 235 241 247 246 246 264 269 265 280 296 306 308 323 338 357 7 7 137 185 215 256 279 293 305 314 315 315 321 322 315 303 299 309 315 330 56 60 62 57 53 51 48 46 41 42 40 31 21 15 5 1 305 243 233 238 258 286 308 320 328 321 329 1 355
60 83 109 144 169 180 188 198 204 208 211 214 211 210 210 208 215 222 227 227 229 242 250 255 260 254 266 275 274 279 288 300 302 306 318 334 350 337 284 246 263 273 285 299 310 318 321 325 331 330 329 326 307 298 228 105 95 90 81 77 73 68 64 60 57 54 52 43 32 28 18 10 353 307 278 273 284 310 326 335 339 319 244 65 326
46 62 92 130 161 185 196 201 208 211 213 217 213 211 215 213 215 221 228 232 237 249 256 260 268 267 268 273 277 276 279 287 285 289 303 313 318 313 284 260 275 284 293 305 317 327 330 335 346 346 339 340 339 141 134 119 109 103 95 87 83 75 67 62 60 55 52 46 30 21 13 2 346 331 316 311 342 357 352 356 356 343 248 220 259
28 29 44 88 141 176 195 205 212 215 216 219 217 213 215 216 215 222 228 230 237 247 252 259 266 271 271 267 266 266 267 267 267 268 277 296 298 293 279 262 273 284 292 306 321 332 336 339 350 351 341 339 36 123 128 121 116 109 101 92 82 67 54 44 40 38 37 38 34 21 5 357 343 330 324 334 9 9 355 357 353 350 308 267 278
16 10 6 7 12 195 196 204 211 217 220 221 222 217 215 215 216 224 230 231 236 241 244 251 258 265 269 263 258 259 256 253 254 255 254 261 274 280 277 271 276 280 286 299 318 334 338 337 342 348 349 356 61 123 132 123 119 112 100 88 69 48 37 27 21 17 18 21 24 24 11 359 342 333 325 326 348 1 355 350 344 340 323 297 291
3 349 336 339 334 324 287 233 217 216 221 223 226 223 219 215 215 222 228 232 235 236 238 243 249 256 263 261 256 256 251 243 240 247 253 249 255 268 268 269 274 277 283 294 313 328 334 333 334 341 348 360 56 145 145 134 127 123 113 90 54 37 26 17 12 8 9 11 14 17 12 4 352 342 333 325 337 353 353 349 345 336 323 315 307
251 252 236 243 273 297 302 294 259 231 221 222 226 228 226 220 218 222 226 231 234 233 234 237 242 249 256 254 253 257 249 241 238 241 251 253 253 256 260 261 262 270 281 291 306 316 323 332 335 337 341 342 325 209 168 159 159 154 160 68 27 18 14 10 10 9 8 10 10 12 8 3 358 346 342 339 341 348 351 349 345 339 332 325 318
244 246 230 221 222 232 258 282 280 261 236 223 222 227 229 229 225 225 229 233 235 234 233 233 235 239 245 247 250 253 249 244 239 238 243 250 253 254 260 261 263 273 282 289 299 307 314 326 334 336 330 318 301 263 209 196 209 209 222 303 356 358 359 1 6 13 13 14 11 9 7 1 357 348 346 346 345 348 348 348 345 342 338 332 327
241 246 237 227 222 219 224 234 249 256 248 234 223 223 226 231 232 231 233 236 237 237 236 235 235 236 239 242 246 246 245 245 242 242 243 247 253 256 258 259 266 274 280 288 295 302 308 318 319 307 309 292 270 256 233 221 231 249 264 288 320 335 342 350 2 19 21 22 20 14 9 2 357 351 351 350 349 350 347 346 345 343 341 336 332
231 235 234 231 227 223 221 220 220 222 233 238 231 224 221 225 231 234 236 239 241 241 240 238 239 241 242 244 247 246 244 244 241 243 245 250 256 259 259 260 263 266 276 287 292 295 301 316 318 296 285 284 262 245 231 227 229 242 258 273 288 312 325 336 357 26 33 34 31 25 17 8 3 358 358 358 353 350 349 349 346 346 346 342 338
229 232 232 230 227 224 224 221 217 212 212 221 229 229 223 221 224 230 233 236 239 241 242 241 244 245 245 249 249 248 249 250 244 240 243 251 258 261 261 259 261 268 275 280 285 291 295 313 323 309 288 283 276 256 235 229 227 234 244 258 270 286 305 313 335 17 36 40 35 30 25 16 11 7 5 5 1 356 354 353 351 350 350 348 345
236 239 240 239 233 224 221 221 221 218 212 207 214 225 226 223 221 225 229 232 237 242 240 238 242 245 247 251 251 248 249 250 249 248 245 249 257 261 261 253 257 266 269 274 283 288 289 302 316 315 299 290 298 287 258 238 231 234 240 250 264 275 288 295 301 336 21 28 29 24 21 17 12 10 10 8 7 3 359 357 355 354 353 351 350
246 252 255 254 248 237 224 216 217 220 218 207 202 211 221 225 223 222 225 228 233 242 247 247 248 253 257 260 263 259 253 251 247 249 249 251 256 258 256 253 260 266 267 274 281 284 288 300 309 314 310 298 302 302 281 257 241 239 244 249 262 273 282 287 286 286 313 346 360 6 6 8 6 6 6 6 6 5 2 359 357 355 354 351 354
275 277 278 273 263 251 234 217 212 214 217 212 201 198 208 222 225 226 227 223 224 230 239 252 259 264 268 270 275 271 265 267 257 253 255 257 261 259 255 253 260 270 273 276 281 287 291 301 308 311 314 305 305 310 296 276 257 247 248 251 260 270 279 284 283 278 271 280 301 321 338 345 351 355 358 359 360 1 1 359 357 353 351 352 360
288 293 295 294 283 261 244 225 213 211 211 210 205 195 193 203 216 228 230 231 242 241 231 239 250 257 263 261 267 265 257 266 268 265 267 269 269 263 259 257 259 267 268 268 278 288 289 299 306 306 311 306 307 313 303 290 274 258 253 252 256 264 272 278 279 278 273 268 273 282 298 315 328 337 344 349 352 354 355 357 355 349 347 351 0
303 309 311 312 309 277 251 229 213 208 206 206 205 194 185 187 196 208 205 218 231 239 232 236 238 241 253 255 259 261 255 257 262 268 272 273 273 260 255 254 253 257 254 252 270 286 289 297 300 302 310 305 303 308 302 296 285 269 259 254 253 256 262 268 272 274 274 271 269 272 277 287 300 311 323 332 338 344 347 350 349 345 347 346 347
316 319 320 321 323 307 261 230 213 206 204 203 203 194 184 183 186 193 191 204 208 213 227 234 232 229 238 247 250 250 252 255 257 265 266 265 277 266 252 249 248 251 251 255 270 279 286 297 298 304 310 302 296 298 299 296 287 277 265 257 255 255 257 261 265 268 271 271 270 271 272 276 282 291 303 313 321 329 337 343 342 338 339 337 325
318 325 325 322 324 318 267 226 214 208 207 205 203 197 188 186 186 190 194 206 204 206 222 226 230 234 236 242 239 237 248 258 257 263 262 257 266 264 257 260 256 246 247 260 267 266 278 297 300 301 300 292 293 294 296 301 291 281 270 261 256 254 255 258 261 264 267 270 271 272 272 273 276 282 290 298 307 314 322 329 334 333 329 326 316
319 328 328 322 326 321 243 215 210 207 209 207 205 199 194 192 192 195 195 205 206 207 219 216 223 234 240 246 235 230 245 255 253 259 260 258 259 258 261 271 262 241 242 261 265 262 272 293 303 297 287 286 293 293 293 308 301 288 278 268 259 255 254 255 257 260 263 266 269 271 272 273 273 276 281 286 293 299 308 312 319 330 328 322 316
314 317 318 316 327 326 222 206 204 205 206 204 202 198 198 196 196 202 196 196 203 214 226 217 217 230 240 244 227 224 241 241 242 254 258 260 257 254 254 256 253 241 246 266 273 269 268 284 299 290 285 289 293 285 280 303 307 297 288 278 270 262 258 256 257 260 263 265 267 270 271 271 272 273 275 278 281 286 294 299 304 312 319 321 321
310 309 315 315 304 266 199 195 197 201 201 199 198 197 199 199 202 208 201 201 200 203 227 221 219 234 244 238 217 218 239 224 216 233 237 241 244 241 233 227 239 245 253 271 280 277 271 279 287 281 292 307 301 287 284 295 301 300 293 285 280 273 267 263 261 261 263 264 266 268 271 272 273 274 274 276 277 280 284 288 294 298 301 306 312
332 332 329 325 275 198 179 181 185 193 195 194 196 197 201 205 212 214 213 221 212 199 211 215 221 233 241 229 213 218 243 238 230 238 243 242 230 220 225 229 233 236 246 260 261 262 264 268 275 277 298 312 306 296 295 295 293 293 289 284 281 277 273 270 266 263 262 262 264 266 268 270 272 274 275 276 278 280 281 282 285 289 292 296 301
4 3 354 21 90 134 144 162 171 179 185 188 192 197 203 208 216 216 216 224 211 197 196 201 219 230 241 235 221 232 249 254 256 254 249 241 221 213 229 235 230 231 232 236 245 256 258 257 262 272 286 292 287 284 289 294 296 298 296 291 284 278 274 272 270 267 264 262 262 262 264 266 269 271 272 274 277 279 281 282 283 285 287 291 295
38 36 47 66 84 102 105 123 145 159 169 175 181 189 196 199 205 208 207 204 197 197 198 197 202 211 234 241 222 239 252 266 281 268 255 243 228 231 246 239 224 237 237 229 240 253 256 257 254 257 266 273 275 279 285 293 300 303 303 299 295 290 284 278 274 270 267 265 263 262 262 264 265 267 268 270 272 273 276 279 281 283 286 288 290
84 81 82 80 83 95 100 109 124 135 145 152 158 164 170 175 184 190 196 201 199 193 195 204 206 210 238 260 229 246 259 270 292 294 280 273 254 244 257 255 234 248 252 236 232 247 261 264 259 258 258 257 261 269 277 284 290 293 296 297 296 295 292 287 282 278 275 271 269 267 265 264 264 264 266 267 268 268 269 273 276 278 281 283 285
102 103 99 95 94 97 104 110 115 120 126 133 135 138 139 143 156 169 177 182 171 153 170 201 216 219 239 261 254 253 259 271 294 321 326 314 311 279 272 276 259 259 265 253 243 257 269 272 272 275 274 267 268 271 275 282 287 289 290 292 293 294 294 292 288 284 282 280 277 275 272 269 267 266 266 266 266 267 267 268 269 271 274 278 279
116 120 115 113 115 107 104 105 107 105 106 110 111 111 112 122 132 135 138 132 129 136 152 169 174 192 216 243 260 264 272 282 299 318 324 316 313 309 302 301 295 287 276 259 254 260 268 273 275 279 283 281 280 281 283 286 288 291 294 296 296 296 296 296 294 290 286 284 281 279 278 276 274 272 269 267 267 267 267 267 267 268 270 273 276
122 120 121 124 121 112 109 107 103 99 96 96 92 89 86 96 107 107 116 120 119 128 128 124 128 133 146 150 163 225 270 284 295 302 302 294 291 295 299 305 309 311 298 272 268 270 270 273 274 278 280 279 279 280 284 288 292 296 298 300 301 300 299 298 297 294 290 287 283 280 279 279 279 278 275 273 271 269 268 268 268 268 269 270 272
124 121 127 130 123 118 119 111 104 101 99 98 94 92 87 85 90 93 98 103 99 94 92 96 100 99 107 123 148 203 248 270 286 293 290 284 285 288 293 300 303 303 302 299 294 288 284 281 278 278 278 277 281 285 288 293 298 300 300 299 300 300 299 298 295 292 289 287 285 283 281 280 279 278 279 278 276 273 271 270 269 269 269 269 270
126 127 129 127 123 122 118 108 104 107 104 101 101 101 97 92 91 90 89 90 88 82 82 81 76 72 72 71 67 61 47 23 355 341 330 313 302 298 297 300 303 304 303 303 301 297 294 292 289 285 284 284 287 289 292 296 300 303 304 304 305 304 302 299 295 290 289 287 285 284 283 283 282 279 279 280 278 275 273 272 272 272 271 270 270
127 127 124 119 119 116 112 107 106 108 104 102 101 98 96 94 92 90 88 89 88 84 82 79 74 70 68 65 60 56 50 43 36 26 16 6 351 338 330 326 322 317 310 305 302 299 297 297 296 293 292 292 291 292 296 298 300 304 308 312 314 316 317 312 303 300 299 293 288 287 287 286 285 282 281 281 279 276 275 275 276 274 273 273 272
121 120 117 114 114 112 109 108 107 104 100 98 96 93 92 92 92 91 93 93 91 88 86 85 82 78 76 73 68 62 54 46 41 34 25 18 11 4 360 356 351 345 337 329 322 318 315 311 309 307 304 301 298 299 302 303 306 311 318 322 321 323 327 321 315 315 312 302 295 295 293 288 285 283 281 281 281 279 277 278 279 278 277 276 275
117 115 114 113 111 110 108 106 104 100 98 95 92 89 89 90 91 92 91 90 90 91 88 86 84 81 77 71 65 60 51 44 39 32 25 19 13 9 4 360 357 355 351 349 349 349 346 342 339 336 332 329 325 321 317 317 319 321 326 331 330 328 324 320 321 318 311 308 307 302 300 297 294 291 288 286 283 280 279 277 277 277 277 277 276
115 113 111 110 108 107 105 104 102 99 96 93 89 87 86 86 85 85 85 83 88 89 82 77 74 67 63 58 53 50 43 36 33 28 23 20 16 15 13 10 8 6 6 4 2 2 1 360 359 357 354 353 351 344 336 334 333 329 329 332 332 324 317 319 324 317 308 309 311 310 311 310 307 305 302 298 293 288 285 282 280 277 276 275 275
114 112 110 108 107 106 105 104 102 98 95 92 89 85 81 81 81 82 84 81 78 78 73 68 64 59 56 53 48 44 40 33 30 27 23 21 20 19 18 17 16 17 17 14 13 14 14 14 14 13 13 9 4 2 3 3 359 354 349 342 327 314 311 314 318 317 313 310 308 312 315 317 317 314 311 310 307 302 296 291 287 283 279 277 275
115 112 111 109 108 107 105 103 100 96 92 89 88 85 80 81 83 82 83 77 69 71 73 68 66 63 56 54 49 43 38 33 29 26 24 23 20 19 19 18 16 18 18 16 19 23 22 22 21 20 19 17 14 14 14 15 16 16 16 13 1 347 335 328 324 323 320 313 312 316 317 319 322 321 322 324 322 318 312 307 302 296 290 285 281
117 114 113 111 108 107 105 103 100 95 92 90 91 94 88 82 81 75 72 73 69 71 75 73 72 66 52 52 47 38 36 30 26 23 21 19 17 17 17 14 13 15 16 17 21 22 21 21 21 21 21 20 20 21 18 18 20 20 19 17 16 13 8 4 355 345 338 328 326 327 323 320 320 321 328 331 328 327 325 321 319 314 307 300 293
122 120 117 114 112 110 109 109 107 103 101 100 101 100 93 81 76 69 64 70 71 72 75 72 71 61 45 48 43 36 34 26 23 22 17 15 14 12 9 7 10 13 13 14 15 14 15 18 19 21 21 21 22 23 21 21 20 18 17 14 11 11 9 7 3 355 350 341 333 333 332 329 322 318 324 329 326 326 326 325 326 325 321 317 311
128 126 122 120 118 115 116 116 112 109 107 105 102 98 93 80 75 72 64 70 74 75 75 69 70 61 44 48 43 35 30 23 21 17 12 13 10 7 5 5 6 6 5 6 7 8 11 13 15 15 14 15 17 18 18 17 16 14 13 11 8 7 5 2 358 352 348 340 331 330 333 332 324 319 321 323 322 322 322 323 326 326 325 325 324